TimeEDT,TemperatureF,Dew PointF,Humidity,Sea Level PressureIn,VisibilityMPH,Wind Direction,Wind SpeedMPH,Gust SpeedMPH,PrecipitationIn,Events,Conditions,WindDirDegrees,DateUTC
12:05 AM,50.0,48.2,94,30.19,1.8,Calm,Calm,-,N/A,,Clear,0,2013-07-30 04:05:00
12:08 AM,48.2,48.2,100,30.19,4.0,Calm,Calm,-,N/A,,Clear,0,2013-07-30 04:08:00
12:45 AM,48.2,48.2,100,30.20,1.8,Calm,Calm,-,N/A,,Clear,0,2013-07-30 04:45:00
12:47 AM,48.2,48.2,100,30.20,1.0,Calm,Calm,-,N/A,,Clear,0,2013-07-30 04:47:00
12:53 AM,48.0,48.0,100,30.22,1.0,Calm,Calm,-,N/A,,Clear,0,2013-07-30 04:53:00
12:57 AM,48.2,48.2,100,30.20,1.8,Calm,Calm,-,N/A,,Clear,0,2013-07-30 04:57:00
1:04 AM,46.4,44.6,93,30.21,10.0,Calm,Calm,-,N/A,,Clear,0,2013-07-30 05:04:00
1:17 AM,48.2,46.4,93,30.21,1.8,Calm,Calm,-,N/A,,Clear,0,2013-07-30 05:17:00
1:21 AM,48.2,46.4,93,30.21,1.0,Calm,Calm,-,N/A,,Clear,0,2013-07-30 05:21:00
1:29 AM,46.4,46.4,100,30.21,0.8,Calm,Calm,-,N/A,,Clear,0,2013-07-30 05:29:00
1:33 AM,46.4,46.4,100,30.21,1.5,Calm,Calm,-,N/A,,Clear,0,2013-07-30 05:33:00
1:35 AM,46.4,44.6,93,30.21,3.0,Calm,Calm,-,N/A,,Clear,0,2013-07-30 05:35:00
1:51 AM,46.4,44.6,93,30.20,1.5,Calm,Calm,-,N/A,,Clear,0,2013-07-30 05:51:00
1:53 AM,46.0,45.0,96,30.22,1.0,Calm,Calm,-,N/A,,Clear,0,2013-07-30 05:53:00
2:00 AM,46.4,46.4,100,30.21,0.8,Calm,Calm,-,N/A,,Clear,0,2013-07-30 06:00:00
2:50 AM,44.6,44.6,100,30.21,0.5,Calm,Calm,-,N/A,Fog,Fog,0,2013-07-30 06:50:00
2:53 AM,44.1,44.1,100,30.22,0.5,Calm,Calm,-,N/A,Fog,Fog,0,2013-07-30 06:53:00
3:09 AM,44.6,44.6,100,30.20,1.2,Calm,Calm,-,N/A,,Partly Cloudy,0,2013-07-30 07:09:00
3:16 AM,42.8,42.8,100,30.20,2.0,Calm,Calm,-,N/A,,Partly Cloudy,0,2013-07-30 07:16:00
3:27 AM,44.6,44.6,100,30.20,9.0,ENE,3.5,-,N/A,,Clear,70,2013-07-30 07:27:00
3:37 AM,44.6,44.6,100,30.20,2.0,Calm,Calm,-,N/A,,Clear,0,2013-07-30 07:37:00
3:46 AM,44.6,44.6,100,30.20,10.0,Calm,Calm,-,N/A,,Clear,0,2013-07-30 07:46:00
3:53 AM,45.0,45.0,100,30.22,4.0,Calm,Calm,-,N/A,,Clear,0,2013-07-30 07:53:00
4:05 AM,42.8,42.8,100,30.20,2.5,Calm,Calm,-,N/A,,Partly Cloudy,0,2013-07-30 08:05:00
4:07 AM,42.8,42.8,100,30.20,1.0,East,3.5,-,N/A,,Mist,90,2013-07-30 08:07:00
4:14 AM,42.8,42.8,100,30.21,0.5,Calm,Calm,-,N/A,Fog,Fog,0,2013-07-30 08:14:00
4:53 AM,44.1,44.1,100,30.22,0.2,Calm,Calm,-,N/A,Fog,Fog,0,2013-07-30 08:53:00
5:16 AM,42.8,42.8,100,30.21,1.2,Calm,Calm,-,N/A,,Overcast,0,2013-07-30 09:16:00
5:18 AM,42.8,42.8,100,30.21,3.0,Calm,Calm,-,N/A,,Overcast,0,2013-07-30 09:18:00
5:27 AM,44.6,44.6,100,30.22,2.5,Calm,Calm,-,N/A,,Overcast,0,2013-07-30 09:27:00
5:36 AM,42.8,42.8,100,30.22,10.0,Calm,Calm,-,N/A,,Overcast,0,2013-07-30 09:36:00
5:44 AM,42.8,42.8,100,30.22,1.5,Calm,Calm,-,N/A,,Overcast,0,2013-07-30 09:44:00
5:49 AM,42.8,42.8,100,30.22,0.8,Calm,Calm,-,N/A,,Mist,0,2013-07-30 09:49:00
5:53 AM,44.1,44.1,100,30.23,0.5,Calm,Calm,-,N/A,Fog,Fog,0,2013-07-30 09:53:00
6:53 AM,43.0,43.0,100,30.25,0.2,Calm,Calm,-,N/A,Fog,Fog,0,2013-07-30 10:53:00
7:53 AM,46.9,46.9,100,30.25,0.2,Calm,Calm,-,N/A,Fog,Fog,0,2013-07-30 11:53:00
8:28 AM,53.6,53.6,100,30.24,1.2,Calm,Calm,-,N/A,,Mostly Cloudy,0,2013-07-30 12:28:00
8:31 AM,53.6,53.6,100,30.24,2.5,Calm,Calm,-,N/A,,Mostly Cloudy,0,2013-07-30 12:31:00
8:37 AM,55.4,55.4,100,30.24,10.0,Calm,Calm,-,N/A,,Scattered Clouds,0,2013-07-30 12:37:00
8:53 AM,57.9,57.0,97,30.25,10.0,Calm,Calm,-,N/A,,Clear,0,2013-07-30 12:53:00
9:53 AM,64.9,55.9,73,30.25,10.0,West,4.6,-,N/A,,Clear,270,2013-07-30 13:53:00
10:53 AM,66.0,50.0,56,30.24,10.0,Calm,Calm,-,N/A,,Clear,0,2013-07-30 14:53:00
11:53 AM,70.0,52.0,53,30.25,10.0,West,4.6,-,N/A,,Clear,280,2013-07-30 15:53:00
12:53 PM,71.1,48.0,44,30.24,10.0,Variable,4.6,-,N/A,,Clear,0,2013-07-30 16:53:00
1:53 PM,72.0,46.9,41,30.22,10.0,West,4.6,-,N/A,,Clear,270,2013-07-30 17:53:00
2:53 PM,73.9,46.0,37,30.21,10.0,Variable,5.8,-,N/A,,Clear,0,2013-07-30 18:53:00
3:53 PM,73.9,48.9,41,30.18,10.0,West,4.6,-,N/A,,Scattered Clouds,260,2013-07-30 19:53:00
4:53 PM,73.0,51.1,46,30.18,10.0,Calm,Calm,-,N/A,,Mostly Cloudy,0,2013-07-30 20:53:00
5:53 PM,75.0,51.1,43,30.16,10.0,Calm,Calm,-,N/A,,Overcast,0,2013-07-30 21:53:00
6:53 PM,73.0,51.1,46,30.16,10.0,Calm,Calm,-,N/A,,Clear,0,2013-07-30 22:53:00
7:53 PM,72.0,52.0,49,30.15,10.0,SE,3.5,-,N/A,,Mostly Cloudy,140,2013-07-30 23:53:00
8:53 PM,66.0,54.0,65,30.15,10.0,SSE,4.6,-,N/A,,Mostly Cloudy,160,2013-07-31 00:53:00
9:53 PM,62.1,55.0,78,30.15,10.0,Calm,Calm,-,N/A,,Clear,0,2013-07-31 01:53:00
10:53 PM,60.1,55.0,83,30.16,10.0,SE,5.8,-,N/A,,Clear,140,2013-07-31 02:53:00
11:53 PM,57.9,55.0,90,30.14,10.0,SSE,4.6,-,N/A,,Partly Cloudy,150,2013-07-31 03:53:00